• In Latvia
  • List of Countries
  • For 7 days
  • Water Temperature
  • Satellite Maps
  • Weather Map
  • Weather Widgets
  • user-avatar
    Login

    Hourly Weather Mingir

    Today, 20 August, Monday

    Time Temperature Precipitation Wind Pressure Humidity
    00:00 +24°C° 0 mm 1 mps 758 mmHg 65%
    01:00 +23°C° 0 mm 1 mps 757 mmHg 68%
    02:00 +22°C° 0 mm 1 mps 757 mmHg 72%
    03:00 +22°C° 0 mm 1 mps 757 mmHg 74%
    04:00 +22°C° 0 mm 1 mps 757 mmHg 76%
    05:00 +21°C° 0 mm 1 mps 757 mmHg 79%
    06:00 +23°C° 0 mm 2 mps 757 mmHg 73%
    07:00 +24°C° 0 mm 2 mps 757 mmHg 67%
    08:00 +26°C° 0 mm 2 mps 757 mmHg 61%
    09:00 +28°C° 0 mm 2 mps 757 mmHg 54%
    10:00 +30°C° 0 mm 2 mps 757 mmHg 48%
    11:00 +31°C° 0 mm 2 mps 757 mmHg 41%
    12:00 +32°C° 0 mm 1 mps 757 mmHg 39%
    13:00 +33°C° 0 mm 1 mps 756 mmHg 36%
    14:00 +33°C° 0 mm 1 mps 756 mmHg 33%
    15:00 +33°C° 0 mm 1 mps 756 mmHg 34%
    16:00 +33°C° 0 mm 1 mps 756 mmHg 34%
    17:00 +32°C° 0 mm 1 mps 755 mmHg 35%
    18:00 +31°C° 0 mm 1 mps 755 mmHg 38%
    19:00 +29°C° 0 mm 1 mps 756 mmHg 40%
    20:00 +27°C° 0 mm 2 mps 756 mmHg 42%
    21:00 +26°C° 0 mm 2 mps 756 mmHg 43%
    22:00 +25°C° 0 mm 2 mps 756 mmHg 43%
    23:00 +24°C° 0 mm 2 mps 756 mmHg 44%

    Tomorrow, 21 August, Tuesday

    Time Temperature Precipitation Wind Pressure Humidity
    00:00 +24°C° 0 mm 2 mps 756 mmHg 44%
    01:00 +23°C° 0 mm 2 mps 756 mmHg 45%
    02:00 +23°C° 0 mm 2 mps 756 mmHg 46%
    03:00 +22°C° 0 mm 1 mps 756 mmHg 47%
    04:00 +22°C° 0 mm 1 mps 756 mmHg 49%
    05:00 +21°C° 0 mm 1 mps 756 mmHg 51%
    06:00 +23°C° 0 mm 1 mps 756 mmHg 48%
    07:00 +25°C° 0 mm 1 mps 756 mmHg 45%
    08:00 +27°C° 0 mm 1 mps 756 mmHg 42%
    09:00 +29°C° 0 mm 1 mps 756 mmHg 40%
    10:00 +31°C° 0 mm 1 mps 756 mmHg 38%
    11:00 +33°C° 0 mm 1 mps 756 mmHg 35%
    12:00 +33°C° 0 mm 1 mps 756 mmHg 33%
    13:00 +35°C° 0 mm 2 mps 755 mmHg 32%
    14:00 +35°C° 0 mm 2 mps 755 mmHg 30%
    15:00 +35°C° 0 mm 2 mps 755 mmHg 30%
    16:00 +35°C° 0 mm 2 mps 755 mmHg 31%
    17:00 +35°C° 0 mm 2 mps 755 mmHg 31%
    18:00 +32°C° 0 mm 2 mps 755 mmHg 36%
    19:00 +30°C° 0 mm 2 mps 755 mmHg 40%
    20:00 +28°C° 0 mm 2 mps 756 mmHg 44%
    21:00 +27°C° 0 mm 3 mps 756 mmHg 49%
    22:00 +27°C° 0 mm 3 mps 756 mmHg 54%
    23:00 +26°C° 0 mm 3 mps 757 mmHg 60%

    Day after tomorrow, 22 August, Wednesday

    Time Temperature Precipitation Wind Pressure Humidity
    00:00 +25°C° 0 mm 3 mps 757 mmHg 64%
    01:00 +23°C° 0 mm 4 mps 757 mmHg 69%
    02:00 +23°C° 0 mm 4 mps 757 mmHg 74%
    03:00 +22°C° 0 mm 4 mps 757 mmHg 76%
    04:00 +21°C° 0 mm 4 mps 757 mmHg 79%
    05:00 +21°C° 0 mm 4 mps 757 mmHg 81%
    06:00 +22°C° 0 mm 4 mps 758 mmHg 73%
    07:00 +23°C° 0 mm 4 mps 758 mmHg 65%
    08:00 +25°C° 0 mm 4 mps 758 mmHg 58%
    09:00 +27°C° 0 mm 5 mps 758 mmHg 51%
    10:00 +28°C° 0 mm 5 mps 758 mmHg 45%
    11:00 +30°C° 0 mm 5 mps 758 mmHg 38%
    12:00 +30°C° 0 mm 5 mps 758 mmHg 36%
    13:00 +32°C° 0 mm 5 mps 758 mmHg 34%
    14:00 +33°C° 0 mm 5 mps 758 mmHg 32%
    15:00 +32°C° 0 mm 4 mps 758 mmHg 33%
    16:00 +32°C° 0 mm 4 mps 758 mmHg 33%
    17:00 +32°C° 0 mm 4 mps 758 mmHg 33%
    18:00 +29°C° 0 mm 4 mps 758 mmHg 38%
    19:00 +27°C° 0 mm 3 mps 758 mmHg 42%
    20:00 +25°C° 0 mm 3 mps 759 mmHg 47%
    21:00 +24°C° 0 mm 3 mps 759 mmHg 50%
    22:00 +22°C° 0 mm 3 mps 759 mmHg 53%
    23:00 +21°C° 0 mm 3 mps 759 mmHg 56%

    23 August, Thursday

    Time Temperature Precipitation Wind Pressure Humidity
    00:00 +21°C° 0 mm 3 mps 759 mmHg 58%
    01:00 +20°C° 0 mm 3 mps 759 mmHg 60%
    02:00 +20°C° 0 mm 3 mps 759 mmHg 63%
    03:00 +19°C° 0 mm 3 mps 759 mmHg 63%
    04:00 +19°C° 0 mm 2 mps 759 mmHg 64%
    05:00 +18°C° 0 mm 2 mps 759 mmHg 64%
    06:00 +20°C° 0 mm 2 mps 759 mmHg 59%
    07:00 +21°C° 0 mm 3 mps 759 mmHg 54%
    08:00 +24°C° 0 mm 3 mps 760 mmHg 49%
    09:00 +25°C° 0 mm 3 mps 759 mmHg 45%
    10:00 +27°C° 0 mm 3 mps 759 mmHg 41%
    11:00 +28°C° 0 mm 3 mps 759 mmHg 36%
    12:00 +29°C° 0 mm 3 mps 759 mmHg 34%
    13:00 +30°C° 0 mm 3 mps 758 mmHg 31%
    14:00 +31°C° 0 mm 3 mps 758 mmHg 29%
    15:00 +31°C° 0 mm 3 mps 757 mmHg 29%
    16:00 +31°C° 0 mm 3 mps 757 mmHg 28%
    17:00 +31°C° 0 mm 3 mps 757 mmHg 28%
    18:00 +29°C° 0 mm 3 mps 757 mmHg 32%
    19:00 +27°C° 0 mm 3 mps 757 mmHg 36%
    20:00 +24°C° 0 mm 2 mps 758 mmHg 40%
    21:00 +23°C° 0 mm 2 mps 758 mmHg 42%
    22:00 +21°C° 0 mm 2 mps 758 mmHg 44%
    23:00 +21°C° 0 mm 1 mps 758 mmHg 46%

    24 August, Friday

    Time Temperature Precipitation Wind Pressure Humidity
    00:00 +21°C° 0 mm 1 mps 757 mmHg 47%
    01:00 +20°C° 0 mm 1 mps 757 mmHg 48%
    02:00 +20°C° 0 mm 1 mps 757 mmHg 49%
    03:00 +19°C° 0 mm 1 mps 757 mmHg 49%
    04:00 +19°C° 0 mm 1 mps 757 mmHg 49%
    05:00 +19°C° 0 mm 1 mps 757 mmHg 49%
    06:00 +20°C° 0 mm 1 mps 757 mmHg 46%
    07:00 +21°C° 0 mm 2 mps 757 mmHg 43%
    08:00 +24°C° 0 mm 2 mps 757 mmHg 39%
    09:00 +26°C° 0 mm 2 mps 757 mmHg 36%
    10:00 +28°C° 0 mm 2 mps 756 mmHg 33%
    11:00 +30°C° 0 mm 3 mps 756 mmHg 30%
    12:00 +30°C° 0 mm 3 mps 756 mmHg 28%
    13:00 +31°C° 0 mm 3 mps 755 mmHg 27%
    14:00 +33°C° 0 mm 3 mps 755 mmHg 25%
    15:00 +32°C° 0 mm 2 mps 754 mmHg 25%
    16:00 +32°C° 0 mm 2 mps 754 mmHg 25%
    17:00 +32°C° 0 mm 2 mps 754 mmHg 25%
    18:00 +30°C° 0 mm 2 mps 754 mmHg 27%
    19:00 +27°C° 0 mm 2 mps 754 mmHg 30%
    20:00 +25°C° 0 mm 2 mps 754 mmHg 33%
    21:00 +24°C° 0 mm 2 mps 754 mmHg 34%
    22:00 +23°C° 0 mm 1 mps 754 mmHg 35%
    23:00 +22°C° 0 mm 1 mps 754 mmHg 36%

    25 August, Saturday

    Time Temperature Precipitation Wind Pressure Humidity
    00:00 +21°C° 0 mm 1 mps 754 mmHg 36%
    01:00 +21°C° 0 mm 1 mps 754 mmHg 37%
    02:00 +20°C° 0 mm 1 mps 753 mmHg 38%
    03:00 +20°C° 0 mm 1 mps 753 mmHg 39%
    04:00 +20°C° 0 mm 1 mps 753 mmHg 39%
    05:00 +20°C° 0 mm 1 mps 753 mmHg 40%
    06:00 +22°C° 0 mm 1 mps 753 mmHg 37%
    07:00 +24°C° 0 mm 1 mps 753 mmHg 35%
    08:00 +26°C° 0 mm 2 mps 753 mmHg 33%
    09:00 +28°C° 0 mm 2 mps 753 mmHg 31%
    10:00 +29°C° 0 mm 2 mps 752 mmHg 30%
    11:00 +31°C° 0 mm 2 mps 752 mmHg 28%
    12:00 +32°C° 0 mm 2 mps 752 mmHg 27%
    13:00 +34°C° 0 mm 2 mps 751 mmHg 25%
    14:00 +35°C° 0 mm 2 mps 751 mmHg 23%
    15:00 +35°C° 0 mm 2 mps 751 mmHg 24%
    16:00 +35°C° 0 mm 2 mps 751 mmHg 25%
    17:00 +35°C° 0 mm 2 mps 750 mmHg 26%
    18:00 +31°C° 0 mm 2 mps 751 mmHg 32%
    19:00 +29°C° 0 mm 2 mps 751 mmHg 37%
    20:00 +26°C° 0 mm 2 mps 751 mmHg 43%
    21:00 +25°C° 0 mm 2 mps 751 mmHg 51%
    22:00 +24°C° 0 mm 2 mps 751 mmHg 59%
    23:00 +23°C° 0 mm 2 mps 752 mmHg 66%
    Show more